Showing default

GEESAT 5-07, 65556

Orbit data source: Space-Track

GEESAT 5-07, 65556 is a payload satellite owned by GeeSpace (CN) in LEO that was launched on Mon, 08 Sep 2025 UTC via a JIELONG-3 launch vehicle from the Yellow Sea Launch Area, China (YSLA). Payload-class satellites include a variety of spacecraft equipped with specific instruments for various scientific and technological missions. These include communications satellites like Starlink; space stations such as the ISS; scientific satellites like the Hubble; Earth observation satellites from companies like Planet Labs, Umbra, and HawkEye 360; GPS; miniature CubeSats for education and research; and military/defense satellites.

Loading next visibility...
Identifier
65556, 2025-201G
Orbit
LEO
Country
Flag of CNCN / PRC
Related business
Manufacturer
GWCG
Mission
Operational Commercial Navigation
Bus & Motor
GPS100, Unknown motor
Mass
130 kg wet, 130 kg dry
Launch date (UTC)
2025-09-08 (9 months ago)
Launch vehicle
JIELONG-3
Launch site
Yellow Sea Launch Area, China (YSLA)
Object type
Payload
Rocket body
Debris
Shape & HBR
Box + 2 Pan, 1.1 m
Radar Cross Section
0.833 m², Large (>1 m²)

Expand to show TLE details & history
Last TLE update: 16 hours ago

TLE from 16 hours ago
0 GEESAT 5-07
1 65556U 25201G   26171.32486869  .00001169  00000-0  16541-3 0  9997
2 65556  49.9900  24.5823 0013077 325.6273  34.3818 14.84151515 42266
Epoch: 2026-06-20T07:47Z
TLE epoch observation values (Epoch: 2026-06-20T07:47:48.654Z)
Latitude
-0.00006°
Longitude
-0.9116°
Altitude
609.249 km
Speed
7.56 km/s
True Right ascension
01h 38m 19s
True Declination
0° 00' 00"
Sunlit
Object was in daylight at epoch
Visualization orbit readout
Latitude
Unknown
Longitude
Unknown
Altitude
Unknown
Speed
Unknown
Apparent Right ascension
Unknown
Apparent Declination
Unknown
Sunlit
N/A
Visualization observer readout
Local Sidereal Time
10:19:36
Azimuth
Unknown
Elevation
Unknown
Doppler factor
Unknown
Orbital elements
Apogee altitude
626.158 km
Perigee altitude
607.863 km
Semi-major axis
6,995.147 km
Eccentricity
0.00131
Inclination
49.99°
RAAN
24.5823°
Arg. of periapsis
325.6273°
True anomaly
34.46654°
Mean anomaly
34.3818°
Eccentric anomaly
34.42416°
Mean motion
3.70978 °/min
Orbital period
97.04 mins
BSTAR
0.00016541
Loading maneuver chart data...
Computing Atmospheric mass density...
Loading historical data...
Loading historical data...
Loading historical data...
Loading historical data...
Loading historical data...
Loading historical data...
Loading historical data...

Documentation

Showing up to 5 results
|